Retour au catalogue

THORAD DELTA 1 DEB

ActifLEO
NORAD 14474·DEBRIS·🇺🇸 United States

Lancé Nov 15, 1974 depuis Vandenberg Space Force Base

Loading…

Prochains Passages (prochaines 24 heures)

TLE

FraisSource: Space-Track

Époque: Sep 14, 2026, 02:52 UTC

1 14474U 74089EQ  26257.12008174 -.00000500  00000-0 -46213-2 0  9998
2 14474 100.6821 133.0647 0280023 266.3863 253.1951 12.08287702931188

Suivez THORAD DELTA 1 DEB en temps réel avec AllMySat

Download on the App Store